Casper, WY

9:05 AM MST on December 09, 2019 (GMT -0700)
Natrona County International

Weather History for KCPR - October, 2019

Change the Weather History Date:

Friday, October 18, 2019

  Actual Average Record
Temperature  
Mean Temperature 43 °F 44 °F  
Max Temperature 55 °F 59 °F 78 °F (2003)
Min Temperature 31 °F 30 °F 16 °F (2006)
Degree Days  
Heating Degree Days 22 21  
Month to date heating degree days 371 320  
Since 1 July heating degree days 542 605  
Cooling Degree Days 0 0  
Month to date cooling degree days 0 0  
Year to date cooling degree days 441 422  
Moisture  
Dew Point 29 °F    
Average Humidity 57    
Maximum Humidity 92    
Minimum Humidity 22    
Precipitation  
Precipitation 0.11 in 0.04 in 0.35 in (1971)
Month to date precipitation 0.53 0.68  
Year to date precipitation 11.23 10.84  
Snow  
Snow 0.00 in 0.30 in - ()
Month to date snowfall 2.4 3.8  
Since 1 July snowfall 2.4 5.6  
Since 1 September snowfall 2.4 5.6  
Snow Depth 0.00 in    
Sea Level Pressure  
Sea Level Pressure 29.68 in    
Wind  
Wind Speed 11 mph (West)    
Max Wind Speed 26 mph    
Max Gust Speed 37 mph    
Visibility 10 miles    
Events Rain    
T = Trace of Precipitation, MM = Missing Value Source: NWS Daily Summary

Daily Weather History Graph

Daily Weather History Graph

Search for Another Location

Airport or City:

Astronomy

Oct. 18, 2019 Rise Set
Actual Time 7:22 AM MDT 6:18 PM MDT
Civil Twilight 6:53 AM MDT 6:47 PM MDT
Nautical Twilight 6:21 AM MDT 7:20 PM MDT
Astronomical Twilight 5:48 AM MDT 7:52 PM MDT
Moon 9:31 PM MDT (10/18) 12:03 PM MDT (10/18)
Length of Visible Light 11h 53m
Length of Day
10h 56m
Waning Gibbous, 78% of the Moon is Illuminated
Oct 18
Waning Gibbous
Oct 21
Last Quarter
Oct 27
New
Nov 4
First Quarter
Nov 12
Full

Hourly Weather History & Observations

Time (MDT) Temp. Windchill Dew Point Humidity Pressure Visibility Wind Dir Wind Speed Gust Speed Precip Events Conditions
12:53 AM 50.0 °F - 24.1 °F 36% 29.43 in 10.0 mi SW 13.8 mph - N/A   Clear
1:53 AM 44.1 °F 39.0 °F 24.1 °F 45% 29.44 in 10.0 mi SW 9.2 mph - N/A   Partly Cloudy
2:53 AM 48.0 °F - 27.0 °F 44% 29.46 in 10.0 mi West 6.9 mph - N/A   Mostly Cloudy
3:53 AM 46.9 °F - 26.1 °F 44% 29.50 in 10.0 mi North 10.4 mph - N/A   Overcast
4:53 AM 46.0 °F 44.8 °F 28.0 °F 50% 29.52 in 10.0 mi North 3.5 mph - N/A   Overcast
5:53 AM 46.0 °F 41.9 °F 30.0 °F 54% 29.56 in 10.0 mi North 8.1 mph - N/A   Overcast
6:53 AM 42.1 °F 39.2 °F 37.0 °F 82% 29.60 in 10.0 mi WNW 4.6 mph - 0.00 in Rain Light Rain
7:17 AM 41.0 °F 37.1 °F 35.1 °F 79% 29.72 in 4.0 mi NNW 5.8 mph - 0.04 in Rain Light Rain
7:53 AM 39.9 °F 37.8 °F 37.0 °F 89% 29.65 in 9.0 mi NW 3.5 mph - 0.07 in Rain Light Rain
8:13 AM 39.9 °F 36.7 °F 36.0 °F 86% 29.73 in 5.0 mi NW 4.6 mph - 0.01 in Rain Light Rain
8:53 AM 39.9 °F 36.7 °F 37.0 °F 89% 29.68 in 6.0 mi West 4.6 mph - 0.02 in Rain Light Rain
9:53 AM 39.9 °F 35.8 °F 37.0 °F 89% 29.67 in 10.0 mi SSE 5.8 mph - 0.02 in Rain Light Rain
10:02 AM 39.9 °F 34.5 °F 37.9 °F 93% 29.75 in 10.0 mi SSE 8.1 mph - 0.00 in Rain Light Rain
10:13 AM 39.9 °F 34.5 °F 37.9 °F 93% 29.75 in 10.0 mi South 8.1 mph - 0.00 in   Overcast
10:53 AM 43.0 °F 34.8 °F 37.9 °F 82% 29.66 in 10.0 mi SSW 18.4 mph 25.3 mph 0.00 in   Overcast
11:48 AM 44.6 °F 37.4 °F 37.4 °F 76% 29.75 in 10.0 mi NNW 16.1 mph - N/A   Overcast
11:53 AM 43.0 °F 36.0 °F 39.0 °F 86% 29.69 in 10.0 mi NNW 13.8 mph 25.3 mph N/A   Overcast
12:53 PM 48.9 °F - 35.1 °F 59% 29.66 in 10.0 mi West 17.3 mph 24.2 mph N/A   Scattered Clouds
1:53 PM 53.1 °F - 27.0 °F 37% 29.65 in 10.0 mi West 19.6 mph 31.1 mph N/A   Scattered Clouds
2:53 PM 55.0 °F - 23.0 °F 29% 29.62 in 10.0 mi West 19.6 mph 31.1 mph N/A   Clear
3:53 PM 55.0 °F - 17.1 °F 23% 29.63 in 10.0 mi WNW 19.6 mph 29.9 mph N/A   Clear
4:53 PM 54.0 °F - 19.0 °F 25% 29.65 in 10.0 mi WNW 16.1 mph - N/A   Clear
5:53 PM 50.0 °F - 21.0 °F 32% 29.68 in 10.0 mi WNW 18.4 mph 28.8 mph N/A   Clear
6:53 PM 44.1 °F 37.7 °F 19.0 °F 37% 29.76 in 10.0 mi West 12.7 mph - N/A   Clear
7:53 PM 42.1 °F 36.1 °F 25.0 °F 51% 29.81 in 10.0 mi NW 10.4 mph - N/A   Partly Cloudy
8:53 PM 36.0 °F 28.5 °F 26.1 °F 67% 29.86 in 10.0 mi WSW 10.4 mph - N/A   Partly Cloudy
9:53 PM 36.0 °F 28.5 °F 26.1 °F 67% 29.87 in 10.0 mi WSW 10.4 mph - N/A   Clear
10:53 PM 34.0 °F 31.0 °F 23.0 °F 64% 29.88 in 10.0 mi SW 3.5 mph - N/A   Clear
11:53 PM 33.1 °F 26.1 °F 21.0 °F 61% 29.88 in 10.0 mi WSW 8.1 mph - N/A   Clear